Weather History for Price, UT

Change the Weather History Date:

Tuesday, May 14, 2013

  Actual Average Record
Temperature  
Mean Temperature 70 °F -  
Max Temperature 88 °F 69 °F 88 °F (2013)
Min Temperature 54 °F 40 °F 34 °F (2014)
Cooling Degree Days 5    
Growing Degree Days 20 (Base 50)    
Moisture  
Dew Point 26 °F    
Average Humidity 22    
Maximum Humidity 38    
Minimum Humidity 8    
Precipitation  
Precipitation 0.00 in - - ()
Sea Level Pressure  
Sea Level Pressure 29.83 in    
Wind  
Wind Speed 6 mph (NE)    
Max Wind Speed 16 mph    
Max Gust Speed 28 mph    
Visibility 10 miles    
Events      
Averages and records for this station are not official NWS values.
T = Trace of Precipitation, MM = Missing Value Source: NWS Daily Summary

Daily Weather History Graph

Daily Weather History Graph

Search for Another Location

Airport:

Trip Planner

Search our weather history database for the weather conditions in past years. The results will help you decide how hot, cold, wet, or windy it might be!

Date:

Astronomy

May. 14, 2013 Rise Set
Actual Time 6:09 AM MDT 8:29 PM MDT
Civil Twilight 5:39 AM MDT 9:00 PM MDT
Nautical Twilight 5:01 AM MDT 9:37 PM MDT
Astronomical Twilight 4:20 AM MDT 10:19 PM MDT
Moon 9:52 AM MDT (5/14) No Moon Set
Length of Visible Light 15h 21m
Length of Day
14h 20m
Waxing Crescent, 19% of the Moon is Illuminated
May 14
Waxing Crescent
May 17
First Quarter
May 24
Full
May 31
Last Quarter
Jun 8
New

Hourly Weather History & Observations

Time (MDT) Temp. Dew Point Humidity Pressure Visibility Wind Dir Wind Speed Gust Speed Precip Events Conditions
12:53 AM 59.0 °F 28.0 °F 31% 29.90 in 10.0 mi ENE 6.9 mph - N/A   Clear
1:53 AM 55.9 °F 28.0 °F 34% 29.90 in 10.0 mi NNE 3.5 mph - N/A   Clear
2:53 AM 57.0 °F 27.0 °F 32% 29.87 in 10.0 mi Calm Calm - N/A   Clear
3:53 AM 54.0 °F 28.0 °F 37% 29.89 in 10.0 mi NNE 3.5 mph - N/A   Clear
4:53 AM 54.0 °F 28.9 °F 38% 29.88 in 10.0 mi NE 4.6 mph - N/A   Clear
5:53 AM 54.0 °F 28.9 °F 38% 29.88 in 10.0 mi NNE 5.8 mph - N/A   Clear
6:53 AM 55.0 °F 30.0 °F 38% 29.89 in 10.0 mi NNE 9.2 mph - N/A   Clear
7:53 AM 64.9 °F 34.0 °F 32% 29.87 in 10.0 mi Calm Calm - N/A   Clear
8:53 AM 73.0 °F 28.0 °F 19% 29.86 in 10.0 mi East 4.6 mph - N/A   Clear
9:53 AM 73.9 °F 27.0 °F 18% 29.89 in 10.0 mi SE 9.2 mph - N/A   Clear
10:53 AM 75.9 °F 27.0 °F 16% 29.88 in 10.0 mi Variable 5.8 mph - N/A   Clear
11:53 AM 78.1 °F 28.0 °F 16% 29.87 in 10.0 mi Calm Calm - N/A   Clear
12:53 PM 81.0 °F 27.0 °F 14% 29.85 in 10.0 mi South 6.9 mph - N/A   Clear
1:53 PM 84.9 °F 23.0 °F 10% 29.80 in 10.0 mi SW 10.4 mph 16.1 mph N/A   Clear
2:53 PM 86.0 °F 21.9 °F 10% 29.77 in 10.0 mi Variable 6.9 mph - N/A   Clear
3:53 PM 86.0 °F 19.0 °F 8% 29.76 in 10.0 mi West 10.4 mph 17.3 mph N/A   Clear
4:36 PM 82.4 °F 21.2 °F 10% 29.98 in 10.0 mi SSW 10.4 mph - N/A   Clear
4:53 PM 82.0 °F 21.0 °F 10% 29.76 in 10.0 mi SW 6.9 mph - N/A   Clear
5:53 PM 79.0 °F 24.1 °F 13% 29.76 in 10.0 mi SSW 16.1 mph 27.6 mph N/A   Clear
6:53 PM 82.9 °F 19.0 °F 9% 29.73 in 10.0 mi Variable 4.6 mph - N/A   Partly Cloudy
7:53 PM 78.1 °F 26.1 °F 15% 29.71 in 10.0 mi SW 8.1 mph 18.4 mph N/A   Clear
8:53 PM 73.9 °F 26.1 °F 17% 29.72 in 10.0 mi Calm Calm - N/A   Partly Cloudy
9:53 PM 70.0 °F 27.0 °F 20% 29.76 in 10.0 mi East 4.6 mph - N/A   Clear
10:53 PM 63.0 °F 28.0 °F 27% 29.79 in 10.0 mi NNE 9.2 mph - N/A   Clear
11:53 PM 63.0 °F 28.0 °F 27% 29.78 in 10.0 mi North 9.2 mph - N/A   Clear